Weather History for KGMU - August, 2013

Change the Weather History Date:

Sunday, August 18, 2013

  Actual Average (KGSP) Record (KGSP)
Temperature  
Mean Temperature 71 °F 79 °F  
Max Temperature 78 °F 89 °F 101 °F (1988)
Min Temperature 64 °F 69 °F 56 °F (1889)
Degree Days  
Heating Degree Days 0 0  
Month to date heating degree days 0  
Since 1 June heating degree days 2  
Since 1 July heating degree days 0  
Cooling Degree Days 6 14  
Month to date cooling degree days 258  
Year to date cooling degree days 1270  
Since 1 June cooling degree days 1069  
Growing Degree Days 21 (Base 50)    
Moisture  
Dew Point 65 °F    
Average Humidity 86    
Maximum Humidity 94    
Minimum Humidity 65    
Precipitation  
Precipitation 0.24 in 0.14 in 1.80 in (1957)
Month to date precipitation 2.68  
Year to date precipitation 30.71  
Snow  
Snow 0.00 in 0.00 in 0.00 in ()
Month to date snowfall 0.0  
Since 1 June snowfall 0.0  
Since 1 July snowfall 0.0  
Snow Depth -    
Sea Level Pressure  
Sea Level Pressure 30.19 in    
Wind  
Wind Speed 3 mph (NE)    
Max Wind Speed 7 mph    
Max Gust Speed -    
Visibility 9 miles    
Events Rain    
T = Trace of Precipitation, MM = Missing Value Source: NWS Daily Summary

Daily Weather History Graph

Daily Weather History Graph

Search for Another Location

Airport or City:

Trip Planner

Search our weather history database for the weather conditions in past years. The results will help you decide how hot, cold, wet, or windy it might be!

Date:

Astronomy

Aug. 18, 2013 Rise Set
Actual Time 6:52 AM EDT 8:13 PM EDT
Civil Twilight 6:25 AM EDT 8:40 PM EDT
Nautical Twilight 5:53 AM EDT 9:11 PM EDT
Astronomical Twilight 5:20 AM EDT 9:44 PM EDT
Moon 6:16 PM EDT (8/18) 4:03 AM EDT (8/18)
Length of Visible Light 14h 14m
Length of Day
13h 21m
Waxing Gibbous, 92% of the Moon is Illuminated
Aug 18
Waxing Gibbous
Aug 20
Full
Aug 28
Last Quarter
Sep 5
New
Sep 12
First Quarter

Hourly Weather History & Observations

Time (EDT) Temp. Dew Point Humidity Pressure Visibility Wind Dir Wind Speed Gust Speed Precip Events Conditions
12:53 AM 64.9 °F 63.0 °F 93% 30.18 in 2.0 mi NE 3.5 mph - 0.09 in Rain Heavy Rain
12:56 AM 64.4 °F 62.6 °F 94% 30.19 in 1.8 mi NE 3.5 mph - 0.03 in Rain Heavy Rain
1:01 AM 64.4 °F 62.6 °F 94% 30.19 in 2.0 mi NE 4.6 mph - 0.06 in Rain Heavy Rain
1:11 AM 64.4 °F 62.6 °F 94% 30.19 in 3.0 mi NNE 4.6 mph - 0.08 in Rain Rain
1:18 AM 64.4 °F 62.6 °F 94% 30.19 in 6.0 mi NNE 4.6 mph - 0.08 in Rain Light Rain
1:50 AM 64.4 °F 62.6 °F 94% 30.18 in 10.0 mi NE 4.6 mph - 0.08 in   Overcast
1:53 AM 64.9 °F 63.0 °F 93% 30.17 in 10.0 mi NE 4.6 mph - 0.08 in   Overcast
2:53 AM 64.9 °F 63.0 °F 93% 30.16 in 10.0 mi NE 6.9 mph - N/A   Overcast
3:53 AM 64.9 °F 63.0 °F 93% 30.15 in 10.0 mi NE 4.6 mph - 0.00 in   Overcast
4:53 AM 64.9 °F 63.0 °F 93% 30.17 in 3.0 mi ENE 4.6 mph - 0.02 in Rain Light Rain
5:06 AM 64.4 °F 62.6 °F 94% 30.18 in 6.0 mi NE 6.9 mph - 0.00 in Rain Light Rain
5:53 AM 64.9 °F 63.0 °F 93% 30.18 in 10.0 mi ENE 3.5 mph - 0.01 in Rain Light Rain
6:53 AM 64.9 °F 63.0 °F 93% 30.19 in 10.0 mi Calm Calm - 0.00 in   Overcast
7:53 AM 66.0 °F 63.0 °F 90% 30.20 in 10.0 mi NNE 3.5 mph - 0.00 in Rain Light Rain
8:53 AM 66.0 °F 63.0 °F 90% 30.22 in 10.0 mi ENE 5.8 mph - 0.00 in Rain Light Rain
9:53 AM 68.0 °F 64.0 °F 87% 30.22 in 10.0 mi ENE 4.6 mph - 0.00 in   Overcast
10:17 AM 68.0 °F 64.4 °F 88% 30.24 in 10.0 mi ENE 5.8 mph - N/A   Overcast
10:53 AM 68.0 °F 64.0 °F 87% 30.24 in 10.0 mi NE 3.5 mph - 0.01 in   Overcast
11:53 AM 70.0 °F 64.9 °F 84% 30.23 in 10.0 mi Calm Calm - N/A   Overcast
12:53 PM 71.1 °F 66.0 °F 84% 30.22 in 10.0 mi NNE 3.5 mph - N/A   Overcast
1:35 PM 71.6 °F 66.2 °F 83% 30.23 in 10.0 mi Calm Calm - N/A   Overcast
1:53 PM 73.0 °F 66.0 °F 79% 30.21 in 10.0 mi Calm Calm - N/A   Overcast
2:27 PM 77.0 °F 66.2 °F 69% 30.21 in 10.0 mi Calm Calm - N/A   Mostly Cloudy
2:53 PM 75.0 °F 66.0 °F 73% 30.18 in 10.0 mi Calm Calm - N/A   Overcast
3:53 PM 75.9 °F 66.0 °F 71% 30.17 in 10.0 mi West 3.5 mph - N/A   Overcast
4:37 PM 77.0 °F 66.2 °F 69% 30.18 in 10.0 mi NW 3.5 mph - N/A   Scattered Clouds
4:53 PM 77.0 °F 66.0 °F 69% 30.16 in 10.0 mi NNW 3.5 mph - N/A   Mostly Cloudy
5:11 PM 78.8 °F 66.2 °F 65% 30.18 in 10.0 mi Calm Calm - N/A   Overcast
5:53 PM 75.9 °F 66.9 °F 74% 30.16 in 10.0 mi Calm Calm - N/A   Overcast
6:53 PM 73.9 °F 66.9 °F 79% 30.16 in 10.0 mi Calm Calm - N/A   Overcast
7:53 PM 73.9 °F 66.9 °F 79% 30.17 in 10.0 mi Calm Calm - N/A   Partly Cloudy
8:53 PM 73.0 °F 68.0 °F 84% 30.18 in 10.0 mi Calm Calm - 0.00 in Rain Light Rain
9:53 PM 72.0 °F 69.1 °F 91% 30.19 in 10.0 mi NNW 3.5 mph - 0.01 in Rain Light Rain
10:53 PM 72.0 °F 69.1 °F 91% 30.20 in 9.0 mi Calm Calm - 0.02 in Rain Light Rain
11:07 PM 71.6 °F 69.8 °F 94% 30.22 in 10.0 mi East 3.5 mph - 0.00 in Rain Light Rain
11:37 PM 71.6 °F 69.8 °F 94% 30.22 in 10.0 mi Calm Calm - 0.00 in Rain Light Rain
11:53 PM 72.0 °F 69.1 °F 91% 30.21 in 10.0 mi Calm Calm - 0.00 in   Overcast